[[{"header":{"parameterUnit":"m.s-1","parameterCategory":1,"la1":30.2991,"la2":30.254,"lo1":-89.0895,"lo2":-89.0444,"dy":0.0017,"dx":0.0017,"nx":28,"ny":28,"refTime":"2025-04-26T03:00:00:Z","depth":0,"parameterNumber":2,"parameterNumberName":"U-component_of_WINDS"},"data":[0,0,0,0,0,0,0,0,0,0,0,0,0,0,0,0,0,0,0,0,0,0,0,0,0,0,0,0,0,0,0,0,0,0,0,0,0,0,0,0,0,0,0,0,0,0,0,0,0,0,0,0,0,0,0,0,0,0,0.0262,0.0264,0,0.0406,0.0408,0.041,0.0484,0.0484,0.0484,0.0484,0.0636,0.064,0.0644,0,0,0,0,0,0,0,0,0,0,0,0,0,0.0053,0.0057,0.0262,0.0264,0.0266,0.0406,0.0408,0.041,0.0484,0.0484,0.0484,0.0484,0.0634,0.0639,0.0644,0,0,0,0,0,0,0,0,0,0,0,0,0,0.0165,0.0058,0.0262,0.0319,0.0326,0.0406,0.0408,0.0411,0.0484,0.0484,0.0484,0.0484,0.0633,0.0639,0.0645,0.0679,0,0,0.0663,0.0665,0,0,0,0,0,0,0,0,0.0159,0.0173,0.0309,0.0316,0.0323,0.0427,0.039,0.0501,0.0484,0.0424,0.0484,0.0484,0.0567,0.0578,0.0605,0.0686,0.0693,0.0663,0.0667,0.0669,0.0671,0,0,0,0,0,0,0,0.0151,0.0167,0.0319,0.0311,0.032,0.0339,0.0355,0.0411,0.0493,0.0429,0.0435,0.0451,0.057,0.0599,0.0609,0.0695,0.0663,0.0668,0.0672,0.0674,0.0811,0.0811,0,0,0,0,0,0,0.0134,0.016,0.0315,0.0324,0.024,0.0343,0.0361,0.0394,0.0493,0.0508,0.0451,0.0454,0.0589,0.0602,0.0615,0.0661,0.0669,0.0675,0.0678,0.0811,0.0811,0.0811,0,0,0,0,0,0,0.0129,0.0147,0.0309,0.0244,0.0266,0.0346,0.0383,0.0397,0.0425,0.0509,0.0524,0.0465,0.0589,0.0606,0.0662,0.0667,0.0678,0.0683,0.081,0.0811,0.0811,0.0754,0,0,0,0,0,0,0.0123,0.0145,0.0158,0.0243,0.0269,0.0353,0.0383,0.0399,0.0435,0.044,0.0526,0.054,0.0591,0.0653,0.0668,0.0676,0.0688,0.081,0.081,0.0811,0.0755,0.0752,0.0749,0,0,0,0,0,0.0115,0.0137,0.0158,0.0177,0.0287,0.0353,0.0368,0.0424,0.0435,0.0449,0.0503,0.0538,0.0664,0.0658,0.0675,0.0685,0.081,0.081,0.0811,0.0757,0.0752,0.0749,0,0,0,0,0,0,0.0052,0.015,0.0174,0.0224,0.028,0.0365,0.0385,0.0418,0.0473,0.0476,0.0545,0.0563,0.0612,0.0655,0.0646,0.0723,0.0741,0.0744,0.0694,0.069,0.0687,0.0676,0.0693,0,0,0,0,0,0.0044,0.0088,0.0171,0.0208,0.0234,0.0305,0.0336,0.0374,0.0435,0.0459,0.0517,0.0575,0.0628,0.0661,0.0715,0.0762,0.0781,0.0777,0.0773,0.077,0.0773,0.08,0.0799,0.0811,0.0811,0.0811,0,0,0.0028,0.0086,0.0111,0.0197,0.0244,0.0289,0.0324,0.0371,0.0405,0.0467,0.0522,0.0566,0.0636,0.0687,0.0712,0.0724,0.0773,0.077,0.0767,0.0772,0.08,0.0799,0.0798,0.0811,0.0811,0.0811,0,0,0.0022,0.007,0.0106,0.0152,0.0222,0.0269,0.0277,0.0358,0.0389,0.0445,0.0492,0.0534,0.0624,0.0672,0.0707,0.0717,0.0751,0.0733,0.0715,0.0741,0.074,0.0739,0.0742,0.0743,0.0735,0.0735,0.0735,0,-0.0007,0.0062,0.012,0.0163,0.02,0.0256,0.0292,0.0335,0.0419,0.0444,0.0454,0.0567,0.0618,0.0681,0.0682,0.071,0.0722,0.0724,0.0735,0.0735,0.0736,0.0739,0.074,0.0732,0.0732,0.0732,0.0733,0,0.0023,0.007,0.009,0.0169,0.0208,0.0247,0.0312,0.0344,0.0379,0.0424,0.0481,0.0543,0.061,0.0628,0.0663,0.0695,0.0699,0.0721,0.0741,0.0731,0.0735,0.0737,0.0728,0.0729,0.073,0.073,0,0,-0.0017,0.0091,0.0098,0.0134,0.0215,0.0253,0.0295,0.0358,0.0385,0.0441,0.0478,0.0552,0.0572,0.0613,0.0654,0.0676,0.0679,0.0696,0.0698,0.069,0.0718,0.07,0.0701,0.0701,0.0702,0.0702,0.0712,0,-0.0012,0.0065,0.0118,0.0174,0.0218,0.0271,0.0308,0.0362,0.0405,0.0449,0.0497,0.0548,0.0572,0.0596,0.0621,0.0673,0.0685,0.0673,0.0737,0.0739,0.0718,0.0704,0.0686,0.0692,0.0714,0.0714,0.0714,0,0.0005,0.0057,0.0118,0.0193,0.0213,0.0245,0.0307,0.0348,0.0411,0.044,0.0484,0.0526,0.0573,0.0587,0.0652,0.0643,0.0672,0.0702,0.0703,0.0712,0.0726,0.0712,0.0695,0.0695,0.0718,0.0718,0.0717,0,-0.0032,0.0055,0.0102,0.0131,0.022,0.0241,0.0279,0.0342,0.0376,0.043,0.0453,0.0513,0.0545,0.059,0.0647,0.0652,0.0706,0.0726,0.0733,0.0731,0.0743,0.0741,0.073,0.0761,0.0761,0.0761,0.0761,0,-0.0031,0.0004,0.0087,0.0115,0.0156,0.0216,0.0255,0.0298,0.0352,0.0391,0.0441,0.0476,0.0548,0.0592,0.0637,0.0684,0.0699,0.0724,0.0736,0.072,0.0716,0.074,0.0741,0.0761,0.0761,0.0761,0.0761,0,-0.0064,-0.0007,0.0047,0.0126,0.0147,0.0173,0.0242,0.0272,0.0317,0.0365,0.038,0.0451,0.0505,0.0565,0.0641,0.067,0.0715,0.0731,0.0693,0.07,0.0704,0.0702,0.0708,0.0711,0.0739,0.0738,0.0738,0,-0.0068,-0.004,0.0041,0.007,0.0107,0.0152,0.0187,0.0247,0.0282,0.0354,0.0375,0.0433,0.0482,0.0567,0.0626,0.0683,0.0701,0.0699,0.071,0.0693,0.0701,0.0698,0.0701,0.0696,0.0695,0.0695,0.0694,0,-0.008,-0.0054,-0.0006,0.0051,0.0091,0.0139,0.0189,0.021,0.028,0.0316,0.0372,0.041,0.0485,0.0542,0.0606,0.0646,0.0682,0.069,0.0695,0.0679,0.0656,0.0668,0.0684,0.069,0.069,0.0691,0.0691,0.0691,-0.0098,-0.0072,-0.0011,0.0041,0.0084,0.013,0.0162,0.021,0.0257,0.0322,0.0355,0.0409,0.047,0.056,0.0599,0.0643,0.0654,0.0661,0.0663,0.0664,0.0659,0.0648,0.0655,0.0655,0.0655,0.0655,0.0656,0,-0.0108,-0.0067,-0.0021,0.0047,0.0087,0.0116,0.0173,0.0204,0.0252,0.0305,0.0351,0.0414,0.0469,0.0531,0.059,0.0613,0.0631,0.0627,0.0626,0.0635,0.0646,0.0636,0.0611,0.0611,0.0611,0.0611,0.0611,0.0611,-0.0109,-0.0062,-0.0029,0.0039,0.0081,0.0134,0.0164,0.0206,0.0249,0.0316,0.0361,0.0401,0.0458,0.0521,0.0572,0.0589,0.0608,0.0599,0.0621,0.063,0.0634,0.0637,0.0628,0.0603,0.0603,0.0606,0.0606,0.0606]},{"header":{"parameterUnit":"m.s-1","parameterCategory":1,"la1":30.2991,"la2":30.254,"lo1":-89.0895,"lo2":-89.0444,"dy":0.0017,"dx":0.0017,"nx":28,"ny":28,"refTime":"2025-04-26T03:00:00:Z","depth":0,"parameterNumber":3,"parameterNumberName":"V-component_of_WINDS"},"data":[0,0,0,0,0,0,0,0,0,0,0,0,0,0,0,0,0,0,0,0,0,0,0,0,0,0,0,0,0,0,0,0,0,0,0,0,0,0,0,0,0,0,0,0,0,0,0,0,0,0,0,0,0,0,0,0,0,0,3.2026,3.2026,0,3.2006,3.2006,3.2006,3.2031,3.2032,3.2033,3.2034,3.2007,3.2006,3.2004,0,0,0,0,0,0,0,0,0,0,0,0,0,3.2081,3.208,3.2026,3.2026,3.2026,3.2006,3.2006,3.2005,3.2031,3.2032,3.2033,3.2035,3.2008,3.2006,3.2004,0,0,0,0,0,0,0,0,0,0,0,0,0,3.2059,3.208,3.2026,3.2036,3.2037,3.2006,3.2006,3.2005,3.2031,3.2032,3.2034,3.2035,3.2009,3.2006,3.2004,3.196,0,0,3.1997,3.1995,0,0,0,0,0,0,0,0,3.206,3.2057,3.2035,3.2035,3.2036,3.2023,3.2015,3.199,3.203,3.2033,3.2034,3.2036,3.2011,3.2008,3.2001,3.1959,3.1958,3.1996,3.1995,3.1994,3.1993,0,0,0,0,0,0,0,3.2061,3.2058,3.2018,3.2035,3.2035,3.204,3.2038,3.2011,3.2014,3.2033,3.2035,3.2032,3.2011,3.2004,3.2001,3.1958,3.1996,3.1994,3.1993,3.1992,3.1877,3.1876,0,0,0,0,0,0,3.2063,3.2059,3.2019,3.2017,3.2052,3.2038,3.2036,3.2025,3.2014,3.2014,3.2031,3.2034,3.2007,3.2004,3.2,3.1947,3.1994,3.1992,3.199,3.1879,3.1877,3.1875,0,0,0,0,0,0,3.2064,3.2059,3.2019,3.2039,3.2034,3.2035,3.2023,3.2024,3.2017,3.2013,3.2013,3.2023,3.2008,3.2003,3.197,3.1947,3.1991,3.1988,3.1881,3.1878,3.1876,3.1842,0,0,0,0,0,0,3.2065,3.2059,3.2044,3.2038,3.2033,3.1992,3.2022,3.2023,3.2013,3.2016,3.2005,3.2005,3.2009,3.1974,3.1968,3.1944,3.1986,3.1883,3.188,3.1877,3.1845,3.1839,3.1833,0,0,0,0,0,3.2067,3.2034,3.2043,3.2038,3.2014,3.199,3.1987,3.1994,3.2011,3.1995,3.1993,3.2005,3.1951,3.197,3.1964,3.1939,3.1884,3.1881,3.1877,3.1848,3.184,3.1834,0,0,0,0,0,0,3.2035,3.2033,3.2043,3.2008,3.1999,3.1995,3.1974,3.1985,3.197,3.1973,3.1981,3.1978,3.1943,3.1938,3.1959,3.1896,3.192,3.1915,3.19,3.1893,3.1887,3.1888,3.1984,0,0,0,0,0,3.2024,3.2007,3.2006,3.1974,3.197,3.1973,3.1962,3.1969,3.1959,3.1955,3.195,3.1939,3.1919,3.1906,3.1888,3.1845,3.1842,3.1825,3.1819,3.1814,3.1809,3.1785,3.1777,3.1863,3.1863,3.1864,0,0,3.2,3.1998,3.1986,3.1968,3.1962,3.1941,3.1969,3.1947,3.1931,3.1951,3.192,3.1916,3.1903,3.1865,3.1848,3.186,3.1785,3.181,3.1806,3.1803,3.178,3.1772,3.1765,3.1861,3.1861,3.1862,0,0,3.1947,3.1944,3.1917,3.1911,3.1903,3.1905,3.1899,3.1892,3.1891,3.186,3.1875,3.1855,3.1822,3.1812,3.1803,3.1746,3.1756,3.174,3.1708,3.1684,3.1677,3.1671,3.1649,3.1642,3.1735,3.1735,3.1735,0,3.1918,3.1891,3.1902,3.1878,3.1869,3.1889,3.186,3.1853,3.1838,3.183,3.1844,3.1802,3.1795,3.1755,3.1741,3.1733,3.1724,3.174,3.1678,3.1672,3.1666,3.1646,3.1637,3.1733,3.1733,3.1734,3.1734,0,3.1855,3.1835,3.1814,3.1801,3.179,3.1764,3.1769,3.1756,3.1764,3.1764,3.1731,3.1724,3.1704,3.1695,3.1702,3.1655,3.1662,3.1677,3.1701,3.1656,3.1636,3.1629,3.173,3.1731,3.1731,3.1732,0,0,3.1779,3.1774,3.1766,3.176,3.1752,3.1736,3.171,3.1693,3.1681,3.167,3.1647,3.1618,3.1632,3.1621,3.1627,3.1606,3.156,3.1623,3.1623,3.161,3.1506,3.1494,3.1485,3.1568,3.1566,3.1565,3.1507,0,3.1725,3.1683,3.1692,3.165,3.1631,3.1649,3.1627,3.1618,3.1618,3.16,3.1599,3.1578,3.1599,3.1592,3.1573,3.157,3.1539,3.1574,3.1544,3.1543,3.1545,3.1475,3.1462,3.1407,3.1499,3.1498,3.1497,0,3.1656,3.1644,3.16,3.1595,3.1588,3.1568,3.1552,3.1536,3.1526,3.1527,3.1515,3.1525,3.1497,3.1523,3.1484,3.1508,3.1497,3.1493,3.1491,3.1487,3.1516,3.1467,3.139,3.1381,3.1485,3.1486,3.1487,0,3.1603,3.1577,3.1547,3.1541,3.1535,3.152,3.1516,3.1508,3.1497,3.1483,3.1475,3.1457,3.1447,3.1432,3.1436,3.1455,3.1395,3.1422,3.1393,3.1393,3.1378,3.1379,3.1296,3.1374,3.1374,3.1374,3.1374,0,3.1541,3.1513,3.1523,3.1504,3.1473,3.1483,3.1451,3.145,3.1442,3.1422,3.1437,3.1417,3.1424,3.1404,3.1406,3.1373,3.1368,3.1367,3.1367,3.1364,3.1364,3.1355,3.1358,3.1372,3.1372,3.1373,3.1373,0,3.1476,3.1482,3.145,3.1448,3.1446,3.1423,3.1419,3.1401,3.1403,3.1377,3.1371,3.1372,3.135,3.1352,3.1326,3.1328,3.1286,3.1292,3.1289,3.129,3.1261,3.1263,3.1168,3.1155,3.1243,3.1242,3.1241,0,3.1435,3.1414,3.1409,3.1398,3.1394,3.1375,3.1364,3.1373,3.1361,3.1348,3.133,3.131,3.1293,3.1256,3.1253,3.1233,3.1238,3.1206,3.1234,3.1232,3.1235,3.1235,3.1233,3.1199,3.1198,3.1198,3.1197,0,3.1361,3.1365,3.135,3.1335,3.1322,3.1311,3.13,3.129,3.1298,3.1283,3.1261,3.1248,3.1223,3.1201,3.1182,3.1176,3.1187,3.1188,3.118,3.1176,3.1175,3.1174,3.1272,3.119,3.1191,3.1191,3.1192,3.1192,3.1305,3.1287,3.1281,3.1263,3.1257,3.1247,3.123,3.123,3.1212,3.1193,3.1199,3.1174,3.1164,3.114,3.1132,3.1111,3.1122,3.1111,3.1108,3.1104,3.11,3.118,3.1108,3.1108,3.1108,3.1108,3.1108,0,3.123,3.1228,3.1212,3.1198,3.1183,3.1198,3.1187,3.1173,3.1151,3.1142,3.1126,3.11,3.1079,3.1075,3.1055,3.1038,3.1042,3.1032,3.1033,3.1031,3.1092,3.11,3.1029,3.1029,3.1029,3.1029,3.1029,3.1029,3.119,3.116,3.1163,3.1129,3.1127,3.1103,3.1096,3.1086,3.1079,3.105,3.1033,3.1032,3.1024,3.1003,3.0983,3.0983,3.0973,3.0961,3.0962,3.1019,3.1026,3.1034,3.1042,3.0959,3.0959,3.0902,3.0901,3.0901]}]]